Location: Unspecified
(37.8433°N, 0.0000°E)
Time: 03:44:53
(UTC+00:00)

CZ-4B DEB - Visible Passes

Search period start: 04 April 2026 00:00
Search period end: 14 April 2026 00:00
Orbit: 569 x 797 km, 74.9° (Epoch: 28 March)

Date Brightness Start Highest point End Pass type
(mag) Time Alt. Az. Time Alt. Az. Time Alt. Az.
4 Apr ? 18:58:11 10° WNW 18:59:54 12° W 19:01:38 10° WSW visible
11 Apr ? 04:43:15 10° SE 04:45:20 14° E 04:47:26 10° ENE visible
13 Apr ? 04:18:28 10° ESE 04:20:19 13° E 04:22:11 10° ENE visible
